Year,Month,Day,Hour,Minute,Value (Times are PST for windgust in km/hr)
2021,07,10,00,00,41.80
2021,07,10,00,01,40.20
2021,07,10,00,02,43.50
2021,07,10,00,03,45.10
2021,07,10,00,04,43.50
2021,07,10,00,05,41.80
2021,07,10,00,06,40.20
2021,07,10,00,07,38.60
2021,07,10,00,08,43.50
2021,07,10,00,09,43.50
2021,07,10,00,10,37.00
2021,07,10,00,11,43.50
2021,07,10,00,12,43.50
2021,07,10,00,13,45.10
2021,07,10,00,14,38.60
2021,07,10,00,15,45.10
2021,07,10,00,16,45.10
2021,07,10,00,17,41.80
2021,07,10,00,18,41.80
2021,07,10,00,19,43.50
2021,07,10,00,20,46.70
2021,07,10,00,21,40.20
2021,07,10,00,22,41.80
2021,07,10,00,23,43.50
2021,07,10,00,24,41.80
2021,07,10,00,25,41.80
2021,07,10,00,26,41.80
2021,07,10,00,27,38.60
2021,07,10,00,28,41.80
2021,07,10,00,29,43.50
2021,07,10,00,30,41.80
2021,07,10,00,31,40.20
2021,07,10,00,32,43.50
2021,07,10,00,33,43.50
2021,07,10,00,34,41.80
2021,07,10,00,35,45.10
2021,07,10,00,36,46.70
2021,07,10,00,37,46.70
2021,07,10,00,38,43.50
2021,07,10,00,39,48.30
2021,07,10,00,40,45.10
2021,07,10,00,41,37.00
2021,07,10,00,42,41.80
2021,07,10,00,43,45.10
2021,07,10,00,44,41.80
2021,07,10,00,45,41.80
2021,07,10,00,46,43.50
2021,07,10,00,47,49.90
2021,07,10,00,48,49.90
2021,07,10,00,49,48.30
2021,07,10,00,50,45.10
2021,07,10,00,51,43.50
2021,07,10,00,52,46.70
2021,07,10,00,53,48.30
2021,07,10,00,54,48.30
2021,07,10,00,55,48.30
2021,07,10,00,56,51.50
2021,07,10,00,57,51.50
2021,07,10,00,58,46.70
2021,07,10,00,59,46.70
2021,07,10,01,00,46.70
2021,07,10,01,01,51.50
2021,07,10,01,02,53.10
2021,07,10,01,03,49.90
2021,07,10,01,04,49.90
2021,07,10,01,05,49.90
2021,07,10,01,06,46.70
2021,07,10,01,07,46.70
2021,07,10,01,08,48.30
2021,07,10,01,09,54.70
2021,07,10,01,10,49.90
2021,07,10,01,11,53.10
2021,07,10,01,12,48.30
2021,07,10,01,13,51.50
2021,07,10,01,14,53.10
2021,07,10,01,15,48.30
2021,07,10,01,16,49.90
2021,07,10,01,17,51.50
2021,07,10,01,18,51.50
2021,07,10,01,19,48.30
2021,07,10,01,20,54.70
2021,07,10,01,21,53.10
2021,07,10,01,22,56.30
2021,07,10,01,23,49.90
2021,07,10,01,24,46.70
2021,07,10,01,25,53.10
2021,07,10,01,26,51.50
2021,07,10,01,27,49.90
2021,07,10,01,28,54.70
2021,07,10,01,29,46.70
2021,07,10,01,30,53.10
2021,07,10,01,31,56.30
2021,07,10,01,32,49.90
2021,07,10,01,33,43.50
2021,07,10,01,34,46.70
2021,07,10,01,35,53.10
2021,07,10,01,36,48.30
2021,07,10,01,37,48.30
2021,07,10,01,38,53.10
2021,07,10,01,39,46.70
2021,07,10,01,40,45.10
2021,07,10,01,41,51.50
2021,07,10,01,42,49.90
2021,07,10,01,43,51.50
2021,07,10,01,44,51.50
2021,07,10,01,45,46.70
2021,07,10,01,46,45.10
2021,07,10,01,47,46.70
2021,07,10,01,48,51.50
2021,07,10,01,49,43.50
2021,07,10,01,50,41.80
2021,07,10,01,51,49.90
2021,07,10,01,52,49.90
2021,07,10,01,53,51.50
2021,07,10,01,54,49.90
2021,07,10,01,55,51.50
2021,07,10,01,56,54.70
2021,07,10,01,57,54.70
2021,07,10,01,58,61.20
2021,07,10,01,59,48.30
2021,07,10,02,00,59.50
2021,07,10,02,01,59.50
2021,07,10,02,02,57.90
2021,07,10,02,03,57.90
2021,07,10,02,04,56.30
2021,07,10,02,05,56.30
2021,07,10,02,06,56.30
2021,07,10,02,07,59.50
2021,07,10,02,08,57.90
2021,07,10,02,09,56.30
2021,07,10,02,10,56.30
2021,07,10,02,11,59.50
2021,07,10,02,12,59.50
2021,07,10,02,13,54.70
2021,07,10,02,14,61.20
2021,07,10,02,15,66.00
2021,07,10,02,16,59.50
2021,07,10,02,17,56.30
2021,07,10,02,18,59.50
2021,07,10,02,19,61.20
2021,07,10,02,20,57.90
2021,07,10,02,21,54.70
2021,07,10,02,22,56.30
2021,07,10,02,23,59.50
2021,07,10,02,24,56.30
2021,07,10,02,25,53.10
2021,07,10,02,26,56.30
2021,07,10,02,27,54.70
2021,07,10,02,28,56.30
2021,07,10,02,29,53.10
2021,07,10,02,30,59.50
2021,07,10,02,31,56.30
2021,07,10,02,32,57.90
2021,07,10,02,33,57.90
2021,07,10,02,34,56.30
2021,07,10,02,35,59.50
2021,07,10,02,36,51.50
2021,07,10,02,37,53.10
2021,07,10,02,38,51.50
2021,07,10,02,39,53.10
2021,07,10,02,40,53.10
2021,07,10,02,41,53.10
2021,07,10,02,42,53.10
2021,07,10,02,43,54.70
2021,07,10,02,44,53.10
2021,07,10,02,45,56.30
2021,07,10,02,46,46.70
2021,07,10,02,47,57.90
2021,07,10,02,48,56.30
2021,07,10,02,49,48.30
2021,07,10,02,50,49.90
2021,07,10,02,51,49.90
2021,07,10,02,52,46.70
2021,07,10,02,53,46.70
2021,07,10,02,54,46.70
2021,07,10,02,55,45.10
2021,07,10,02,56,49.90
2021,07,10,02,57,46.70
2021,07,10,02,58,48.30
2021,07,10,02,59,46.70
2021,07,10,03,00,46.70
2021,07,10,03,01,51.50
2021,07,10,03,02,49.90
2021,07,10,03,03,45.10
2021,07,10,03,04,54.70
2021,07,10,03,05,48.30
2021,07,10,03,06,51.50
2021,07,10,03,07,48.30
2021,07,10,03,08,49.90
2021,07,10,03,09,43.50
2021,07,10,03,10,45.10
2021,07,10,03,11,54.70
2021,07,10,03,12,56.30
2021,07,10,03,13,56.30
2021,07,10,03,14,49.90
2021,07,10,03,15,49.90
2021,07,10,03,16,51.50
2021,07,10,03,17,53.10
2021,07,10,03,18,54.70
2021,07,10,03,19,56.30
2021,07,10,03,20,48.30
2021,07,10,03,21,48.30
2021,07,10,03,22,51.50
2021,07,10,03,23,49.90
2021,07,10,03,24,56.30
2021,07,10,03,25,57.90
2021,07,10,03,26,56.30
2021,07,10,03,27,61.20
2021,07,10,03,28,56.30
2021,07,10,03,29,61.20
2021,07,10,03,30,57.90
2021,07,10,03,31,62.70
2021,07,10,03,32,57.90
2021,07,10,03,33,53.10
2021,07,10,03,34,56.30
2021,07,10,03,35,59.50
2021,07,10,03,36,54.70
2021,07,10,03,37,54.70
2021,07,10,03,38,56.30
2021,07,10,03,39,59.50
2021,07,10,03,40,57.90
2021,07,10,03,41,61.20
2021,07,10,03,42,57.90
2021,07,10,03,43,57.90
2021,07,10,03,44,61.20
2021,07,10,03,45,56.30
2021,07,10,03,46,51.50
2021,07,10,03,47,53.10
2021,07,10,03,48,57.90
2021,07,10,03,49,53.10
2021,07,10,03,50,51.50
2021,07,10,03,51,53.10
2021,07,10,03,52,54.70
2021,07,10,03,53,56.30
2021,07,10,03,54,54.70
2021,07,10,03,55,56.30
2021,07,10,03,56,56.30
2021,07,10,03,57,56.30
2021,07,10,03,58,54.70
2021,07,10,03,59,53.10
2021,07,10,04,00,57.90
2021,07,10,04,01,54.70
2021,07,10,04,02,57.90
2021,07,10,04,03,56.30
2021,07,10,04,04,57.90
2021,07,10,04,05,62.70
2021,07,10,04,06,56.30
2021,07,10,04,07,59.50
2021,07,10,04,08,56.30
2021,07,10,04,09,57.90
2021,07,10,04,10,57.90
2021,07,10,04,11,59.50
2021,07,10,04,12,59.50
2021,07,10,04,13,61.20
2021,07,10,04,14,61.20
2021,07,10,04,15,57.90
2021,07,10,04,16,59.50
2021,07,10,04,17,54.70
2021,07,10,04,18,56.30
2021,07,10,04,19,57.90
2021,07,10,04,20,59.50
2021,07,10,04,21,53.10
2021,07,10,04,22,59.50
2021,07,10,04,23,62.70
2021,07,10,04,24,56.30
2021,07,10,04,25,61.20
2021,07,10,04,26,57.90
2021,07,10,04,27,56.30
2021,07,10,04,28,59.50
2021,07,10,04,29,51.50
2021,07,10,04,30,56.30
2021,07,10,04,31,56.30
2021,07,10,04,32,57.90
2021,07,10,04,33,51.50
2021,07,10,04,34,54.70
2021,07,10,04,35,56.30
2021,07,10,04,36,54.70
2021,07,10,04,37,57.90
2021,07,10,04,38,57.90
2021,07,10,04,39,53.10
2021,07,10,04,40,57.90
2021,07,10,04,41,53.10
2021,07,10,04,42,51.50
2021,07,10,04,43,53.10
2021,07,10,04,44,49.90
2021,07,10,04,45,51.50
2021,07,10,04,46,51.50
2021,07,10,04,47,48.30
2021,07,10,04,48,49.90
2021,07,10,04,49,49.90
2021,07,10,04,50,49.90
2021,07,10,04,51,49.90
2021,07,10,04,52,48.30
2021,07,10,04,53,49.90
2021,07,10,04,54,45.10
2021,07,10,04,55,46.70
2021,07,10,04,56,49.90
2021,07,10,04,57,54.70
2021,07,10,04,58,48.30
2021,07,10,04,59,48.30
2021,07,10,05,00,48.30
2021,07,10,05,01,48.30
2021,07,10,05,02,49.90
2021,07,10,05,03,48.30
2021,07,10,05,04,46.70
2021,07,10,05,05,46.70
2021,07,10,05,06,49.90
2021,07,10,05,07,46.70
2021,07,10,05,08,46.70
2021,07,10,05,09,45.10
2021,07,10,05,10,48.30
2021,07,10,05,11,45.10
2021,07,10,05,12,40.20
2021,07,10,05,13,45.10
2021,07,10,05,14,46.70
2021,07,10,05,15,43.50
2021,07,10,05,16,43.50
2021,07,10,05,17,45.10
2021,07,10,05,18,46.70
2021,07,10,05,19,45.10
2021,07,10,05,20,48.30
2021,07,10,05,21,46.70
2021,07,10,05,22,49.90
2021,07,10,05,23,48.30
2021,07,10,05,24,51.50
2021,07,10,05,25,49.90
2021,07,10,05,26,43.50
2021,07,10,05,27,48.30
2021,07,10,05,28,45.10
2021,07,10,05,29,48.30
2021,07,10,05,30,48.30
2021,07,10,05,31,49.90
2021,07,10,05,32,48.30
2021,07,10,05,33,48.30
2021,07,10,05,34,49.90
2021,07,10,05,35,53.10
2021,07,10,05,36,54.70
2021,07,10,05,37,54.70
2021,07,10,05,38,46.70
2021,07,10,05,39,48.30
2021,07,10,05,40,53.10
2021,07,10,05,41,49.90
2021,07,10,05,42,51.50
2021,07,10,05,43,51.50
2021,07,10,05,44,49.90
2021,07,10,05,45,56.30
2021,07,10,05,46,48.30
2021,07,10,05,47,48.30
2021,07,10,05,48,54.70
2021,07,10,05,49,56.30
2021,07,10,05,50,49.90
2021,07,10,05,51,51.50
2021,07,10,05,52,49.90
2021,07,10,05,53,46.70
2021,07,10,05,54,49.90
2021,07,10,05,55,46.70
2021,07,10,05,56,51.50
2021,07,10,05,57,48.30
2021,07,10,05,58,49.90
2021,07,10,05,59,56.30
2021,07,10,06,00,54.70
2021,07,10,06,01,48.30
2021,07,10,06,02,49.90
2021,07,10,06,03,51.50
2021,07,10,06,04,46.70
2021,07,10,06,05,48.30
2021,07,10,06,06,45.10
2021,07,10,06,07,51.50
2021,07,10,06,08,49.90
2021,07,10,06,09,54.70
2021,07,10,06,10,51.50
2021,07,10,06,11,51.50
2021,07,10,06,12,45.10
2021,07,10,06,13,43.50
2021,07,10,06,14,49.90
2021,07,10,06,15,48.30
2021,07,10,06,16,51.50
2021,07,10,06,17,49.90
2021,07,10,06,18,51.50
2021,07,10,06,19,49.90
2021,07,10,06,20,45.10
2021,07,10,06,21,48.30
2021,07,10,06,22,48.30
2021,07,10,06,23,49.90
2021,07,10,06,24,45.10
2021,07,10,06,25,48.30
2021,07,10,06,26,53.10
2021,07,10,06,27,46.70
2021,07,10,06,28,45.10
2021,07,10,06,29,48.30
2021,07,10,06,30,45.10
2021,07,10,06,31,41.80
2021,07,10,06,32,46.70
2021,07,10,06,33,43.50
2021,07,10,06,34,48.30
2021,07,10,06,35,45.10
2021,07,10,06,36,45.10
2021,07,10,06,37,43.50
2021,07,10,06,38,45.10
2021,07,10,06,39,45.10
2021,07,10,06,40,43.50
2021,07,10,06,41,41.80
2021,07,10,06,42,41.80
2021,07,10,06,43,41.80
2021,07,10,06,44,45.10
2021,07,10,06,45,43.50
2021,07,10,06,46,48.30
2021,07,10,06,47,41.80
2021,07,10,06,48,38.60
2021,07,10,06,49,38.60
2021,07,10,06,50,40.20
2021,07,10,06,51,40.20
2021,07,10,06,52,41.80
2021,07,10,06,53,43.50
2021,07,10,06,54,41.80
2021,07,10,06,55,46.70
2021,07,10,06,56,46.70
2021,07,10,06,57,45.10
2021,07,10,06,58,46.70
2021,07,10,06,59,41.80
2021,07,10,07,00,37.00
2021,07,10,07,01,41.80
2021,07,10,07,02,40.20
2021,07,10,07,03,46.70
2021,07,10,07,04,48.30
2021,07,10,07,05,41.80
2021,07,10,07,06,35.40
2021,07,10,07,07,40.20
2021,07,10,07,08,41.80
2021,07,10,07,09,41.80
2021,07,10,07,10,43.50
2021,07,10,07,11,41.80
2021,07,10,07,12,38.60
2021,07,10,07,13,41.80
2021,07,10,07,14,41.80
2021,07,10,07,15,41.80
2021,07,10,07,16,41.80
2021,07,10,07,17,41.80
2021,07,10,07,18,45.10
2021,07,10,07,19,35.40
2021,07,10,07,20,40.20
2021,07,10,07,21,40.20
2021,07,10,07,22,41.80
2021,07,10,07,23,38.60
2021,07,10,07,24,46.70
2021,07,10,07,25,41.80
2021,07,10,07,26,41.80
2021,07,10,07,27,45.10
2021,07,10,07,28,43.50
2021,07,10,07,29,38.60
2021,07,10,07,30,40.20
2021,07,10,07,31,41.80
2021,07,10,07,32,43.50
2021,07,10,07,33,41.80
2021,07,10,07,34,45.10
2021,07,10,07,35,43.50
2021,07,10,07,36,43.50
2021,07,10,07,37,40.20
2021,07,10,07,38,40.20
2021,07,10,07,39,40.20
2021,07,10,07,40,45.10
2021,07,10,07,41,43.50
2021,07,10,07,42,41.80
2021,07,10,07,43,38.60
2021,07,10,07,44,43.50
2021,07,10,07,45,43.50
2021,07,10,07,46,40.20
2021,07,10,07,47,38.60
2021,07,10,07,48,45.10
2021,07,10,07,49,40.20
2021,07,10,07,50,40.20
2021,07,10,07,51,46.70
2021,07,10,07,52,41.80
2021,07,10,07,53,41.80
2021,07,10,07,54,41.80
2021,07,10,07,55,40.20
2021,07,10,07,56,43.50
2021,07,10,07,57,43.50
2021,07,10,07,58,45.10
2021,07,10,07,59,43.50
2021,07,10,08,00,41.80
2021,07,10,08,01,46.70
2021,07,10,08,02,43.50
2021,07,10,08,03,43.50
2021,07,10,08,04,45.10
2021,07,10,08,05,43.50
2021,07,10,08,06,41.80
2021,07,10,08,07,45.10
2021,07,10,08,08,43.50
2021,07,10,08,09,41.80
2021,07,10,08,10,41.80
2021,07,10,08,11,41.80
2021,07,10,08,12,41.80
2021,07,10,08,13,41.80
2021,07,10,08,14,43.50
2021,07,10,08,15,45.10
2021,07,10,08,16,41.80
2021,07,10,08,17,43.50
2021,07,10,08,18,41.80
2021,07,10,08,19,41.80
2021,07,10,08,20,43.50
2021,07,10,08,21,40.20
2021,07,10,08,22,38.60
2021,07,10,08,23,40.20
2021,07,10,08,24,40.20
2021,07,10,08,25,43.50
2021,07,10,08,26,41.80
2021,07,10,08,27,43.50
2021,07,10,08,28,41.80
2021,07,10,08,29,40.20
2021,07,10,08,30,43.50
2021,07,10,08,31,43.50
2021,07,10,08,32,40.20
2021,07,10,08,33,41.80
2021,07,10,08,34,45.10
2021,07,10,08,35,41.80
2021,07,10,08,36,38.60
2021,07,10,08,37,40.20
2021,07,10,08,38,38.60
2021,07,10,08,39,38.60
2021,07,10,08,40,38.60
2021,07,10,08,41,43.50
2021,07,10,08,42,41.80
2021,07,10,08,43,43.50
2021,07,10,08,44,45.10
2021,07,10,08,45,41.80
2021,07,10,08,46,40.20
2021,07,10,08,47,41.80
2021,07,10,08,48,46.70
2021,07,10,08,49,41.80
2021,07,10,08,50,41.80
2021,07,10,08,51,38.60
2021,07,10,08,52,43.50
2021,07,10,08,53,46.70
2021,07,10,08,54,43.50
2021,07,10,08,55,46.70
2021,07,10,08,56,41.80
2021,07,10,08,57,45.10
2021,07,10,08,58,41.80
2021,07,10,08,59,40.20
2021,07,10,09,00,45.10
2021,07,10,09,01,41.80
2021,07,10,09,02,41.80
2021,07,10,09,03,41.80
2021,07,10,09,04,41.80
2021,07,10,09,05,43.50
2021,07,10,09,06,46.70
2021,07,10,09,07,43.50
2021,07,10,09,08,48.30
2021,07,10,09,09,41.80
2021,07,10,09,10,41.80
2021,07,10,09,11,41.80
2021,07,10,09,12,43.50
2021,07,10,09,13,41.80
2021,07,10,09,14,41.80
2021,07,10,09,15,45.10
2021,07,10,09,16,45.10
2021,07,10,09,17,41.80
2021,07,10,09,18,43.50
2021,07,10,09,19,45.10
2021,07,10,09,20,43.50
2021,07,10,09,21,41.80
2021,07,10,09,22,41.80
2021,07,10,09,23,46.70
2021,07,10,09,24,45.10
2021,07,10,09,25,40.20
2021,07,10,09,26,45.10
2021,07,10,09,27,43.50
2021,07,10,09,28,41.80
2021,07,10,09,29,41.80
2021,07,10,09,30,43.50
2021,07,10,09,31,46.70
2021,07,10,09,32,45.10
2021,07,10,09,33,48.30
2021,07,10,09,34,43.50
2021,07,10,09,35,45.10
2021,07,10,09,36,45.10
2021,07,10,09,37,46.70
2021,07,10,09,38,46.70
2021,07,10,09,39,41.80
2021,07,10,09,40,41.80
2021,07,10,09,41,41.80
2021,07,10,09,42,41.80
2021,07,10,09,43,48.30
2021,07,10,09,44,48.30
2021,07,10,09,45,45.10
2021,07,10,09,46,41.80
2021,07,10,09,47,45.10
2021,07,10,09,48,46.70
2021,07,10,09,49,43.50
2021,07,10,09,50,45.10
2021,07,10,09,51,43.50
2021,07,10,09,52,45.10
2021,07,10,09,53,41.80
2021,07,10,09,54,48.30
2021,07,10,09,55,43.50
2021,07,10,09,56,46.70
2021,07,10,09,57,45.10
2021,07,10,09,58,41.80
2021,07,10,09,59,48.30
2021,07,10,10,00,41.80
2021,07,10,10,01,45.10
2021,07,10,10,02,43.50
2021,07,10,10,03,46.70
2021,07,10,10,04,46.70
2021,07,10,10,05,48.30
2021,07,10,10,06,46.70
2021,07,10,10,07,49.90
2021,07,10,10,08,48.30
2021,07,10,10,09,43.50
2021,07,10,10,10,48.30
2021,07,10,10,11,46.70
2021,07,10,10,12,46.70
2021,07,10,10,13,46.70
2021,07,10,10,14,48.30
2021,07,10,10,15,43.50
2021,07,10,10,16,48.30
2021,07,10,10,17,49.90
2021,07,10,10,18,43.50
2021,07,10,10,19,45.10
2021,07,10,10,20,48.30
2021,07,10,10,21,48.30
2021,07,10,10,22,46.70
2021,07,10,10,23,48.30
2021,07,10,10,24,43.50
2021,07,10,10,25,45.10
2021,07,10,10,26,43.50
2021,07,10,10,27,45.10
2021,07,10,10,28,46.70
2021,07,10,10,29,43.50
2021,07,10,10,30,45.10
2021,07,10,10,31,40.20
2021,07,10,10,32,45.10
2021,07,10,10,33,45.10
2021,07,10,10,34,38.60
2021,07,10,10,35,48.30
2021,07,10,10,36,46.70
2021,07,10,10,37,43.50
2021,07,10,10,38,46.70
2021,07,10,10,39,48.30
2021,07,10,10,40,46.70
2021,07,10,10,41,45.10
2021,07,10,10,42,48.30
2021,07,10,10,43,43.50
2021,07,10,10,44,40.20
2021,07,10,10,45,41.80
2021,07,10,10,46,45.10
2021,07,10,10,47,41.80
2021,07,10,10,48,43.50
2021,07,10,10,49,43.50
2021,07,10,10,50,43.50
2021,07,10,10,51,46.70
2021,07,10,10,52,46.70
2021,07,10,10,53,46.70
2021,07,10,10,54,45.10
2021,07,10,10,55,41.80
2021,07,10,10,56,48.30
2021,07,10,10,57,45.10
2021,07,10,10,58,43.50
2021,07,10,10,59,48.30
2021,07,10,11,00,45.10
2021,07,10,11,01,46.70
2021,07,10,11,02,46.70
2021,07,10,11,03,49.90
2021,07,10,11,04,48.30
2021,07,10,11,05,48.30
2021,07,10,11,06,45.10
2021,07,10,11,07,51.50
2021,07,10,11,08,48.30
2021,07,10,11,09,49.90
2021,07,10,11,10,48.30
2021,07,10,11,11,45.10
2021,07,10,11,12,48.30
2021,07,10,11,13,51.50
2021,07,10,11,14,49.90
2021,07,10,11,15,48.30
2021,07,10,11,16,46.70
2021,07,10,11,17,53.10
2021,07,10,11,18,53.10
2021,07,10,11,19,49.90
2021,07,10,11,20,46.70
2021,07,10,11,21,45.10
2021,07,10,11,22,45.10
2021,07,10,11,23,49.90
2021,07,10,11,24,48.30
2021,07,10,11,25,46.70
2021,07,10,11,26,49.90
2021,07,10,11,27,49.90
2021,07,10,11,28,51.50
2021,07,10,11,29,48.30
2021,07,10,11,30,49.90
2021,07,10,11,31,46.70
2021,07,10,11,32,51.50
2021,07,10,11,33,51.50
2021,07,10,11,34,48.30
2021,07,10,11,35,51.50
2021,07,10,11,36,48.30
2021,07,10,11,37,51.50
2021,07,10,11,38,49.90
2021,07,10,11,39,48.30
2021,07,10,11,40,51.50
2021,07,10,11,41,51.50
2021,07,10,11,42,49.90
2021,07,10,11,43,48.30
2021,07,10,11,44,48.30
2021,07,10,11,45,49.90
2021,07,10,11,46,48.30
2021,07,10,11,47,48.30
2021,07,10,11,48,51.50
2021,07,10,11,49,54.70
2021,07,10,11,50,49.90
2021,07,10,11,51,51.50
2021,07,10,11,52,49.90
2021,07,10,11,53,49.90
2021,07,10,11,54,48.30
2021,07,10,11,55,51.50
2021,07,10,11,56,49.90
2021,07,10,11,57,48.30
2021,07,10,11,58,48.30
2021,07,10,11,59,51.50
2021,07,10,12,00,48.30
2021,07,10,12,01,49.90
2021,07,10,12,02,51.50
2021,07,10,12,03,51.50
2021,07,10,12,04,49.90
2021,07,10,12,05,48.30
2021,07,10,12,06,49.90
2021,07,10,12,07,46.70
2021,07,10,12,08,49.90
2021,07,10,12,09,46.70
2021,07,10,12,10,46.70
2021,07,10,12,11,48.30
2021,07,10,12,12,49.90
2021,07,10,12,13,45.10
2021,07,10,12,14,49.90
2021,07,10,12,15,46.70
2021,07,10,12,16,48.30
2021,07,10,12,17,45.10
2021,07,10,12,18,48.30
2021,07,10,12,19,43.50
2021,07,10,12,20,46.70
2021,07,10,12,21,45.10
2021,07,10,12,22,46.70
2021,07,10,12,23,48.30
2021,07,10,12,24,46.70
2021,07,10,12,25,45.10
2021,07,10,12,26,48.30
2021,07,10,12,27,48.30
2021,07,10,12,28,46.70
2021,07,10,12,29,48.30
2021,07,10,12,30,43.50
2021,07,10,12,31,48.30
2021,07,10,12,32,45.10
2021,07,10,12,33,49.90
2021,07,10,12,34,46.70
2021,07,10,12,35,45.10
2021,07,10,12,36,48.30
2021,07,10,12,37,46.70
2021,07,10,12,38,48.30
2021,07,10,12,39,46.70
2021,07,10,12,40,46.70
2021,07,10,12,41,49.90
2021,07,10,12,42,48.30
2021,07,10,12,43,43.50
2021,07,10,12,44,46.70
2021,07,10,12,45,45.10
2021,07,10,12,46,45.10
2021,07,10,12,47,45.10
2021,07,10,12,48,45.10
2021,07,10,12,49,43.50
2021,07,10,12,50,40.20
2021,07,10,12,51,43.50
2021,07,10,12,52,43.50
2021,07,10,12,53,46.70
2021,07,10,12,54,45.10
2021,07,10,12,55,45.10
2021,07,10,12,56,45.10
2021,07,10,12,57,45.10
2021,07,10,12,58,45.10
2021,07,10,12,59,45.10
2021,07,10,13,00,46.70
2021,07,10,13,01,45.10
2021,07,10,13,02,45.10
2021,07,10,13,03,43.50
2021,07,10,13,04,46.70
2021,07,10,13,05,46.70
2021,07,10,13,06,45.10
2021,07,10,13,07,43.50
2021,07,10,13,08,43.50
2021,07,10,13,09,41.80
2021,07,10,13,10,46.70
2021,07,10,13,11,45.10
2021,07,10,13,12,45.10
2021,07,10,13,13,46.70
2021,07,10,13,14,45.10
2021,07,10,13,15,46.70
2021,07,10,13,16,46.70
2021,07,10,13,17,46.70
2021,07,10,13,18,43.50
2021,07,10,13,19,46.70
2021,07,10,13,20,49.90
2021,07,10,13,21,43.50
2021,07,10,13,22,48.30
2021,07,10,13,23,45.10
2021,07,10,13,24,45.10
2021,07,10,13,25,40.20
2021,07,10,13,26,45.10
2021,07,10,13,27,45.10
2021,07,10,13,28,45.10
2021,07,10,13,29,43.50
2021,07,10,13,30,46.70
2021,07,10,13,31,48.30
2021,07,10,13,32,43.50
2021,07,10,13,33,46.70
2021,07,10,13,34,45.10
2021,07,10,13,35,43.50
2021,07,10,13,36,46.70
2021,07,10,13,37,45.10
2021,07,10,13,38,43.50
2021,07,10,13,39,41.80
2021,07,10,13,40,45.10
2021,07,10,13,41,43.50
2021,07,10,13,42,45.10
2021,07,10,13,43,45.10
2021,07,10,13,44,43.50
2021,07,10,13,45,43.50
2021,07,10,13,46,45.10
2021,07,10,13,47,45.10
2021,07,10,13,48,43.50
2021,07,10,13,49,46.70
2021,07,10,13,50,43.50
2021,07,10,13,51,45.10
2021,07,10,13,52,49.90
2021,07,10,13,53,45.10
2021,07,10,13,54,43.50
2021,07,10,13,55,46.70
2021,07,10,13,56,46.70
2021,07,10,13,57,45.10
2021,07,10,13,58,49.90
2021,07,10,13,59,48.30
2021,07,10,14,00,48.30
2021,07,10,14,01,45.10
2021,07,10,14,02,46.70
2021,07,10,14,03,43.50
2021,07,10,14,04,46.70
2021,07,10,14,05,48.30
2021,07,10,14,06,45.10
2021,07,10,14,07,46.70
2021,07,10,14,08,48.30
2021,07,10,14,09,43.50
2021,07,10,14,10,48.30
2021,07,10,14,11,46.70
2021,07,10,14,12,49.90
2021,07,10,14,13,46.70
2021,07,10,14,14,46.70
2021,07,10,14,15,46.70
2021,07,10,14,16,46.70
2021,07,10,14,17,48.30
2021,07,10,14,18,41.80
2021,07,10,14,19,46.70
2021,07,10,14,20,48.30
2021,07,10,14,21,51.50
2021,07,10,14,22,51.50
2021,07,10,14,23,48.30
2021,07,10,14,24,45.10
2021,07,10,14,25,53.10
2021,07,10,14,26,51.50
2021,07,10,14,27,53.10
2021,07,10,14,28,51.50
2021,07,10,14,29,48.30
2021,07,10,14,30,51.50
2021,07,10,14,31,51.50
2021,07,10,14,32,48.30
2021,07,10,14,33,51.50
2021,07,10,14,34,51.50
2021,07,10,14,35,49.90
2021,07,10,14,36,51.50
2021,07,10,14,37,49.90
2021,07,10,14,38,53.10
2021,07,10,14,39,53.10
2021,07,10,14,40,49.90
2021,07,10,14,41,51.50
2021,07,10,14,42,53.10
2021,07,10,14,43,49.90
2021,07,10,14,44,54.70
2021,07,10,14,45,53.10
2021,07,10,14,46,54.70
2021,07,10,14,47,53.10
2021,07,10,14,48,49.90
2021,07,10,14,49,51.50
2021,07,10,14,50,53.10
2021,07,10,14,51,51.50
2021,07,10,14,52,53.10
2021,07,10,14,53,53.10
2021,07,10,14,54,51.50
2021,07,10,14,55,49.90
2021,07,10,14,56,49.90
2021,07,10,14,57,49.90
2021,07,10,14,58,51.50
2021,07,10,14,59,49.90
2021,07,10,15,00,53.10
2021,07,10,15,01,49.90
2021,07,10,15,02,51.50
2021,07,10,15,03,49.90
2021,07,10,15,04,43.50
2021,07,10,15,05,48.30
2021,07,10,15,06,48.30
2021,07,10,15,07,46.70
2021,07,10,15,08,48.30
2021,07,10,15,09,46.70
2021,07,10,15,10,45.10
2021,07,10,15,11,45.10
2021,07,10,15,12,46.70
2021,07,10,15,13,41.80
2021,07,10,15,14,45.10
2021,07,10,15,15,51.50
2021,07,10,15,16,45.10
2021,07,10,15,17,43.50
2021,07,10,15,18,48.30
2021,07,10,15,19,49.90
2021,07,10,15,20,48.30
2021,07,10,15,21,48.30
2021,07,10,15,22,48.30
2021,07,10,15,23,48.30
2021,07,10,15,24,46.70
2021,07,10,15,25,48.30
2021,07,10,15,26,48.30
2021,07,10,15,27,46.70
2021,07,10,15,28,48.30
2021,07,10,15,29,46.70
2021,07,10,15,30,48.30
2021,07,10,15,31,45.10
2021,07,10,15,32,49.90
2021,07,10,15,33,48.30
2021,07,10,15,34,43.50
2021,07,10,15,35,48.30
2021,07,10,15,36,51.50
2021,07,10,15,37,48.30
2021,07,10,15,38,46.70
2021,07,10,15,39,45.10
2021,07,10,15,40,43.50
2021,07,10,15,41,41.80
2021,07,10,15,42,38.60
2021,07,10,15,43,37.00
2021,07,10,15,44,35.40
2021,07,10,15,45,35.40
2021,07,10,15,46,33.80
2021,07,10,15,47,37.00
2021,07,10,15,48,37.00
2021,07,10,15,49,37.00
2021,07,10,15,50,38.60
2021,07,10,15,51,35.40
2021,07,10,15,52,35.40
2021,07,10,15,53,41.80
2021,07,10,15,54,45.10
2021,07,10,15,55,35.40
2021,07,10,15,56,38.60
2021,07,10,15,57,40.20
2021,07,10,15,58,43.50
2021,07,10,15,59,45.10
2021,07,10,16,00,41.80
2021,07,10,16,01,38.60
2021,07,10,16,02,38.60
2021,07,10,16,03,38.60
2021,07,10,16,04,38.60
2021,07,10,16,05,40.20
2021,07,10,16,06,35.40
2021,07,10,16,07,38.60
2021,07,10,16,08,37.00
2021,07,10,16,09,46.70
2021,07,10,16,10,41.80
2021,07,10,16,11,41.80
2021,07,10,16,12,43.50
2021,07,10,16,13,46.70
2021,07,10,16,14,46.70
2021,07,10,16,15,41.80
2021,07,10,16,16,45.10
2021,07,10,16,17,45.10
2021,07,10,16,18,43.50
2021,07,10,16,19,43.50
2021,07,10,16,20,45.10
2021,07,10,16,21,41.80
2021,07,10,16,22,45.10
2021,07,10,16,23,45.10
2021,07,10,16,24,48.30
2021,07,10,16,25,45.10
2021,07,10,16,26,43.50
2021,07,10,16,27,46.70
2021,07,10,16,28,45.10
2021,07,10,16,29,41.80
2021,07,10,16,30,40.20
2021,07,10,16,31,43.50
2021,07,10,16,32,48.30
2021,07,10,16,33,48.30
2021,07,10,16,34,45.10
2021,07,10,16,35,41.80
2021,07,10,16,36,41.80
2021,07,10,16,37,41.80
2021,07,10,16,38,46.70
2021,07,10,16,39,46.70
2021,07,10,16,40,46.70
2021,07,10,16,41,46.70
2021,07,10,16,42,49.90
2021,07,10,16,43,48.30
2021,07,10,16,44,48.30
2021,07,10,16,45,48.30
2021,07,10,16,46,48.30
2021,07,10,16,47,46.70
2021,07,10,16,48,45.10
2021,07,10,16,49,45.10
2021,07,10,16,50,49.90
2021,07,10,16,51,46.70
2021,07,10,16,52,48.30
2021,07,10,16,53,49.90
2021,07,10,16,54,48.30
2021,07,10,16,55,48.30
2021,07,10,16,56,45.10
2021,07,10,16,57,46.70
2021,07,10,16,58,46.70
2021,07,10,16,59,45.10
2021,07,10,17,00,49.90
2021,07,10,17,01,51.50
2021,07,10,17,02,46.70
2021,07,10,17,03,48.30
2021,07,10,17,04,49.90
2021,07,10,17,05,46.70
2021,07,10,17,06,51.50
2021,07,10,17,07,46.70
2021,07,10,17,08,53.10
2021,07,10,17,09,49.90
2021,07,10,17,10,48.30
2021,07,10,17,11,49.90
2021,07,10,17,12,45.10
2021,07,10,17,13,46.70
2021,07,10,17,14,48.30
2021,07,10,17,15,49.90
2021,07,10,17,16,48.30
2021,07,10,17,17,48.30
2021,07,10,17,18,53.10
2021,07,10,17,19,49.90